STARLINK-1164 (45070 NORAD) Tracking and Keplerian Element Data

This shows tracking and keplerian element data for the satellite.

Feedback or suggestion? Click here.




ElementValue
Catalog45070
NameSTARLINK-1164
Epoch Orbit2558
Epoch Day193.91667824
Epoch Year2020
RAAN184.7203
Inclination53.0008
Eccentricity0.0001348
Argument of Perigee110.9971
Mean Anonmoly220.7139
Mean Motion15.0557242
Decay Rate0.00055518
L11 45070U 20006AC 20193.91667824 .00055518 00000-0 38004-2 0 9993
L22 45070 53.0008 184.7203 0001348 110.9971 220.7139 15.05572420 25588

Live tracking and technical data element details for STARLINK-1164 (NORAD 45070). STARLINK-1164 can be tracked NOW for your location showing map with azimuth and elevation plus other details from your city location.

Track the satellite on the map from your city or location and see movement details for azimuth, elevation, latitude, longitude, range, height, and movement on the map or in text.







IsCatalogInMostPopularTable: catalog: 45070, numindb: 29
Update: records affected: 1



GetName: 45070 STARLINK-1164

Hit Count: updated at: Mon, 13 Jul 2020 06:14:07 GMT